Terug naar catalogus

FREGAT DEB

ActiefLEO
NORAD 47336·DEBRIS·🇷🇺 Russia

Gelanceerd Jul 18, 2011 vanaf Baikonur Cosmodrome

Loading…

Volgende Passages (komende 24 uur)

TLE

VersSource: Space-Track

Epoch: Sep 13, 2026, 17:33 UTC

1 47336U 11037NT  26256.73172696  .00062032  00000-0  40308-1 0  9996
2 47336  51.6486  26.9116 0799547 170.1866 191.5732 13.03752298250443

Volg FREGAT DEB in realtime met AllMySat

Download on the App Store